Location: Ginger Hill
(40.9728°N, 80.5692°W)
Time: 00:39:01
(UTC+00:00)

Daily predictions for brighter satellites

Satellite Brightness Start Highest point End
(mag) Time Altitude Azimuth Time Altitude Azimuth Time Altitude Azimuth
SL-16 R/B 3.0 00:08:05 10° SW 00:13:40 59° WNW 00:19:16 10° NNE
Cosmos 2315 Rocket 4.1 00:08:49 10° S 00:15:03 64° E 00:21:21 10° NNE
STARLINK-1098 3.8 00:12:42 10° NW 00:16:49 59° NE 00:20:54 10° ESE
ARGOS Delta rocket 4.4 00:13:06 10° SSE 00:18:06 50° ENE 00:23:20 10° N
H-2A R/B 2.6 00:15:30 10° SE 00:20:20 39° ENE 00:25:04 10° N
SL-4 R/B 2.5 00:18:41 10° SSW 00:21:40 29° SE 00:24:40 10° ENE
STARLINK-1123 3.7 00:17:40 10° NW 00:21:48 64° NE 00:25:54 10° ESE
CZ-2C R/B 4.2 00:20:31 10° ENE 00:23:03 14° E 00:25:34 10° ESE
CZ-4 R/B 3.1 00:19:47 10° SSW 00:23:21 36° W 00:26:55 10° NNW
ARGOS 3.7 00:21:33 10° SE 00:26:29 38° ENE 00:31:24 10° N
STARLINK-1097 3.7 00:22:38 10° NW 00:26:47 70° NE 00:30:54 10° ESE
Cosmos 1709 Rocket 4.0 00:20:56 10° N 00:27:08 82° E 00:33:13 10° S
Cosmos 1939 Rocket 4.4 00:27:19 10° SSW 00:31:00 39° W 00:34:41 10° NNW
ISS -3.4 00:27:58 10° NW 00:31:17 53° NNE 00:34:14 12° ESE
STARLINK-1099 3.6 00:27:36 10° NW 00:31:46 77° NE 00:35:45 11° SE
Cosmos 2084 Rocket 3.5 00:29:20 10° NNW 00:33:49 77° NE 00:38:17 10° SE
Cosmos 2251 Rocket 3.5 00:29:46 10° S 00:35:04 69° ESE 00:40:26 10° NNE
Cosmos 1603 3.7 00:30:41 10° S 00:36:12 60° ESE 00:41:44 10° NNE
Cosmos 2228 4.2 00:33:05 10° SE 00:36:23 22° E 00:39:44 10° NE
STARLINK-1104 3.6 00:32:35 10° NW 00:36:45 83° NE 00:40:33 12° SE
Meteor 2-10 4.5 00:33:10 10° SSE 00:38:14 43° E 00:43:28 10° NNE
Cosmos 1626 3.1 00:35:52 10° NNW 00:39:26 49° W 00:43:01 10° S
Meteor 1-21 Rocket 4.3 00:34:37 10° N 00:40:03 53° ENE 00:45:27 10° SSE
STARLINK-1144 3.6 00:37:33 10° NW 00:41:43 89° SSW 00:45:19 13° SE
Cosmos 2074 Rocket 4.4 00:36:42 10° N 00:42:39 43° ENE 00:48:35 10° SSE
SJ-11-01 4.3 00:38:49 10° SSE 00:43:30 86° ENE 00:48:16 10° NNW
HJ-1C 3.9 00:40:21 10° S 00:43:39 60° W 00:47:01 10° NNW
ATLAS 5 CENTAUR R/B 4.2 00:40:45 10° SSE 00:44:11 13° SE 00:47:51 12° ESE
Meteor 1-16 Rocket 4.5 00:40:03 10° SSE 00:45:03 41° E 00:50:11 10° NNE
STARLINK-1103 3.6 00:42:31 10° NW 00:46:41 82° SW 00:50:05 15° SE
Cosmos 1953 2.2 00:43:48 10° S 00:47:43 68° E 00:51:41 10° NNE
USA 186 1.9 00:46:32 10° SSE 00:49:53 60° ENE 00:53:08 10° N
STARLINK-1101 3.7 00:47:32 10° NW 00:51:40 75° SW 00:54:54 16° SE
MONITOR-E 3.8 00:49:48 14° SSE 00:51:54 54° ENE 00:54:30 10° N
IRIDIUM 104 4.3 00:50:40 10° N 00:55:51 63° E 01:01:01 10° SSE
STARLINK-1102 3.8 00:52:30 10° NW 00:56:37 68° SW 00:59:40 17° SE
GEOS 3 Rocket 4.4 00:52:41 10° SSE 00:57:37 49° WSW 01:02:40 10° NW
Ariane Rocket 3.1 00:52:44 10° SSE 00:57:48 82° WSW 01:02:54 10° NNW
Aureole 3 4.0 00:53:39 10° S 00:57:59 81° W 01:03:36 10° N
ATLAS 5 CENTAUR R/B 3.3 00:55:37 10° SSE 01:04:00 - NE 00:56:27 14° SSE
Cosmos 1908 4.0 00:57:37 16° SE 01:00:05 31° E 01:03:31 10° NNE
IRS-1A Rocket 4.4 00:54:42 10° SSE 01:00:23 84° WSW 01:06:13 10° NNW
STARLINK-1111 3.9 00:57:30 10° WNW 01:01:35 62° SW 01:04:27 19° SE
FREGAT/IRIS 2.4 01:00:06 11° S 01:02:37 78° W 01:05:21 10° NNW
IRIDIUM 114 4.2 00:59:47 10° N 01:05:01 77° E 01:10:14 10° S
NOSS 3-3 (A) 4.3 01:00:15 10° SW 01:06:00 69° NW 01:12:31 10° NNE
NOSS 3-3 (C) 4.2 01:00:21 10° SW 01:06:07 70° NW 01:12:37 10° NNE
Resurs 1-3 4.3 01:04:22 23° ESE 01:06:29 36° ENE 01:10:29 10° N
STARLINK-1073 4.1 01:02:30 10° WNW 01:06:34 56° SW 01:09:15 20° SSE
Cosmos 1140 Rocket 4.4 01:07:41 20° SE 01:09:49 26° E 01:14:06 10° NE
STARLINK-1121 4.2 01:07:30 10° WNW 01:11:31 50° SW 01:14:01 21° SSE
MOS 1 Rocket 4.0 01:07:23 10° NNE 01:12:30 43° E 01:17:38 10° SSE
Cosmos 2369 Rocket 2.3 01:07:49 10° NNW 01:13:32 82° WSW 01:18:36 13° SSE
IRIDIUM 103 4.3 01:08:57 10° N 01:14:12 88° W 01:19:25 10° S
Cosmos 1943 Rocket 2.7 01:09:06 10° NNW 01:14:33 59° WSW 01:20:01 10° S
STARLINK-1106 4.4 01:12:31 10° WNW 01:16:29 45° SW 01:18:48 22° SSE
SPOT 3 Rocket 3.5 01:18:32 19° SSE 01:22:21 70° ENE 01:27:33 10° N
BREEZE M DEB (TANK) 3.9 01:14:07 10° SW 01:26:48 86° SSE 01:29:38 20° ENE
Cosmos 614 Rocket 3.9 01:23:13 10° S 01:28:24 67° ESE 01:33:35 10° NNE
Cosmos 2058 Rocket 3.3 01:27:42 36° SE 01:29:00 46° E 01:33:19 10° NNE
Resurs 01 Rocket 2.0 01:28:32 38° ESE 01:29:26 44° ENE 01:33:38 10° N
Cosmos 1437 3.1 01:27:43 10° NNW 01:30:42 58° W 01:31:36 37° SSW
Meteor 1-11 4.3 01:25:46 10° N 01:31:26 56° ENE 01:33:56 32° SE
Cosmos 2263 4.2 01:26:13 10° NNW 01:31:51 80° WSW 01:35:25 23° SSE
ATLAS 2AS CENTAUR R/B 3.1 01:24:48 10° NNW 01:32:12 53° NE 01:35:26 31° ESE
USA 234 3.2 01:25:46 10° NE 01:32:16 64° SE 01:38:44 10° SW
Abrixas rocket 4.2 01:30:09 10° NW 01:32:21 19° N 01:33:14 17° NNE
SJ-6B 3.7 01:30:13 12° S 01:33:53 52° W 01:37:57 10° NNW
Cosmos 1943 3.8 01:29:37 10° SW 01:35:10 58° WNW 01:40:48 10° NNE
Cosmos 407 Rocket 3.3 01:30:46 10° S 01:35:51 65° ESE 01:40:57 10° NNE
SL-24 R/B 4.0 01:31:45 10° N 01:35:53 72° WNW 01:39:37 10° SSW
Cosmos 1818 4.0 01:33:42 10° SW 01:39:05 62° NW 01:44:30 10° NNE
Cosmos 2184 Rocket 4.2 01:34:26 10° NNW 01:40:42 71° W 01:46:52 10° S
Cosmos 1726 3.9 01:38:08 10° SW 01:41:33 34° WNW 01:44:59 10° N
Cosmos 1726 Rocket 3.7 01:39:58 10° SSW 01:44:21 74° W 01:48:47 10° N
CZ-2C R/B 4.3 01:41:06 10° SSW 01:45:39 36° W 01:50:05 10° NNW
SL-8 R/B 3.7 01:45:51 10° WNW 01:50:35 68° SW 01:51:23 56° SSE
Aureole 1 Rocket 4.3 01:44:37 10° SSW 01:52:38 87° WNW 01:59:04 10° NNE
H-2A R/B 4.1 01:55:30 10° SSW 01:59:49 25° W 02:04:05 10° NW
Cosmos 2181 Rocket 4.2 01:59:50 47° E 02:00:09 48° E 02:06:04 10° NNE
SL-4 R/B 2.9 01:57:59 10° W 02:01:09 36° NNW 02:01:32 34° N
Cosmos 1340 Rocket 3.0 02:02:26 68° WSW 02:02:44 72° W 02:06:48 10° N
Cosmos 2154 Rocket 4.1 01:56:29 10° N 02:02:51 75° W 02:06:30 27° S
Cosmos 1656 Rocket 3.9 01:58:05 10° NNW 02:03:42 67° WSW 02:05:33 42° S
Nadezhda 1 Rocket 4.5 01:57:26 10° SSW 02:03:46 62° W 02:10:05 10° N
CZ-2C R/B 2.8 01:58:41 10° N 02:03:49 70° WNW 02:08:59 10° SSW
APEX 4.1 02:00:47 10° NNW 02:07:19 81° ENE 02:08:11 65° SE
Cosmos 962 Rocket 4.3 02:01:25 10° N 02:07:35 75° E 02:08:54 56° SSE
ISS -1.3 02:05:29 10° W 02:07:14 17° WSW 02:07:14 17° WSW
BREEZE-M DEB (TANK) 4.2 02:07:01 10° WNW 02:09:33 18° NNW 02:09:43 18° NNW
Cosmos 1023 Rocket 4.4 02:06:21 18° SSW 02:10:12 83° WNW 02:15:23 10° NNE
SL-8 Rocket 4.1 02:05:37 10° N 02:11:48 54° E 02:12:05 53° E
Cosmos 921 Rocket 3.8 02:09:16 10° N 02:12:15 43° N 02:12:15 43° N
Cosmos 2366 rocket 4.2 02:16:56 10° N 02:22:24 50° ENE 02:22:24 50° ENE
Cosmos 1461 4.1 02:36:20 10° NNW 02:39:27 44° NNW 02:39:27 44° NNW
ATLAS 5 CENTAUR R/B 3.6 02:45:12 22° N 02:45:12 22° N 02:47:04 10° NNE
Terra 3.7 02:47:23 22° NNE 02:47:23 22° NNE 02:49:23 10° N
COSMOS 2455 2.9 02:39:34 10° NNW 02:45:05 74° N 02:45:05 74° N
Spot 2 Rocket 4.1 02:49:42 53° WNW 02:49:42 53° WNW 02:54:04 10° NNW
NOSS 3-4 (A) 4.1 02:43:44 10° NW 02:50:48 62° WSW 02:51:45 58° SSW
NOSS 3-4 (C) 4.0 02:43:50 10° NW 02:50:54 63° WSW 02:51:50 58° SSW
CZ-4C R/B 4.5 02:58:31 10° NNW 03:03:46 22° NE 03:05:24 20° NE
Resurs 01 Rocket 4.0 03:06:06 17° W 03:06:08 17° W 03:08:57 10° NW
USA 234 4.2 03:08:59 10° NE 03:15:04 43° NNW 03:21:09 10° W
ATLAS 2AS CENTAUR R/B 3.8 03:16:22 10° NW 03:22:49 34° WSW 03:22:53 34° WSW
Cosmos 1697 Rocket 4.4 03:35:23 10° NNW 03:38:08 27° N 03:38:08 27° N
Cosmos 1980 Rocket 4.3 04:03:27 10° N 04:05:33 22° N 04:05:33 22° N
CZ-4C R/B 3.9 04:46:12 10° NNW 04:50:35 41° NNW 04:50:35 41° NNW
SL-16 R/B 4.4 05:58:30 25° NE 05:58:30 25° NE 06:02:08 10° N
Cosmos 2219 Rocket 4.2 06:40:45 10° N 06:43:24 24° NNE 06:43:24 24° NNE
SJ 16-02 4.3 06:58:42 13° NNE 06:58:42 13° NNE 06:59:15 10° NNE
COSMOS 2428 4.5 06:50:07 10° N 06:53:07 27° NNE 06:53:07 27° NNE
ADEOS II 3.3 07:27:46 10° NNE 07:31:18 38° NE 07:31:18 38° NE
Tsikada Rocket 4.4 07:36:21 61° ENE 07:36:21 61° ENE 07:42:11 10° NNE
Cosmos 2333 Rocket 4.1 07:30:28 10° NNW 07:32:16 21° NNW 07:32:16 21° NNW
Resurs 1-4 Rocket 3.7 07:34:02 10° N 07:36:38 28° NNW 07:36:38 28° NNW
SL-16 R/B 3.9 07:43:35 27° NW 07:43:35 27° NW 07:46:24 10° NNW
Cosmos 2034 Rocket 4.4 07:39:18 10° N 07:44:11 55° NNW 07:44:11 55° NNW
USA 267 3.3 07:40:40 10° NE 07:46:49 72° ESE 07:46:49 72° ESE
Cosmos 2237 Rocket 3.3 07:43:57 10° N 07:49:18 41° ENE 07:54:38 10° SE
IDEFIX/ARIANE 42P 4.5 07:47:28 10° NE 07:51:30 22° E 07:52:58 20° ESE
CZ-2D R/B 3.6 07:50:55 10° N 07:53:56 28° NNW 07:53:56 28° NNW
USA 238 DEB 3.9 08:03:45 54° SE 08:04:26 56° ESE 08:11:05 10° NE
USA 238 3.9 08:03:49 53° SE 08:04:32 56° ESE 08:11:12 10° NE
BREEZE-M DEB 4.5 08:06:06 48° SE 08:06:27 48° SE 08:19:15 10° ENE
Cosmos 2297 Rocket 2.5 08:07:43 57° ESE 08:07:47 58° ESE 08:13:20 10° NNE
Cosmos 2219 3.2 08:12:51 81° ENE 08:12:51 81° ENE 08:18:23 10° NNE
Spot 4 Rocket 4.3 08:08:34 10° NNE 08:13:40 63° E 08:13:40 63° E
ARIANE 5 R/B 2.6 08:12:48 10° NNE 08:17:31 73° N 08:17:31 73° N
CZ-4B R/B 4.4 08:17:51 10° ESE 08:20:07 16° ENE 08:22:23 10° NNE
Lacrosse 5 rocket 3.7 08:20:56 14° N 08:20:56 14° N 08:22:27 10° NNE
USA 234 4.3 08:14:22 10° E 08:20:28 44° NNE 08:26:36 10° NW
Cosmos 2219 Rocket 4.4 08:24:46 10° NW 08:25:06 12° NW 08:25:06 12° NW
Cosmos 1782 Rocket 4.1 08:25:51 10° N 08:30:08 56° E 08:30:25 54° E
NOSS 3-2 (A) 3.2 08:29:30 67° S 08:30:16 78° ESE 08:36:37 10° NE
STARLINK-1044 4.3 08:32:43 53° ENE 08:32:43 53° ENE 08:35:58 10° NE
Cosmos 2227 Rocket 2.1 08:33:04 68° S 08:33:49 83° ESE 08:39:30 10° NNE
SJ 16-02 3.8 08:35:41 13° NNW 08:35:41 13° NNW 08:36:32 10° NNW
Cosmos 1703 Rocket 3.9 08:36:16 59° NNW 08:36:16 59° NNW 08:39:59 10° N
STARLINK-1047 4.1 08:37:29 60° NE 08:37:29 60° NE 08:40:55 10° NE
STARLINK-1037 4.0 08:38:32 61° NE 08:38:32 61° NE 08:42:01 10° NE
Okean 1 4.1 08:43:38 44° N 08:43:38 44° N 08:46:29 10° N
CENTAUR R/B 3.1 08:40:19 32° S 08:42:41 49° ESE 08:49:04 10° NE
Okean 1-7 3.2 08:43:32 62° NNW 08:43:32 62° NNW 08:47:21 10° N
STARLINK-1059 3.7 08:47:06 72° NNE 08:47:06 72° NNE 08:50:55 10° NE
CZ-2D R/B 3.9 08:44:51 10° N 08:48:18 49° NNW 08:48:18 49° NNW
Gblst 52 Del rocket 4.3 08:48:15 53° WSW 08:49:01 58° SW 08:54:33 10° SE
H-2A R/B 3.7 08:51:34 21° NW 08:51:34 21° NW 08:53:07 10° NNW
Cosmos 1980 3.6 08:45:53 10° NNW 08:51:28 60° WSW 08:53:08 42° SSW
STARLINK-1057 3.6 08:51:51 71° NNW 08:51:51 71° NNW 08:55:52 10° NE
Cosmos 1975 2.8 08:51:42 10° N 08:55:44 81° E 08:56:32 56° SSE
STARLINK-1034 3.6 08:56:37 66° NW 08:56:42 66° NW 09:00:50 10° NE
Cosmos 372 Rocket 4.3 08:56:33 46° W 08:56:56 47° WNW 09:01:59 10° N
CZ-2C R/B 4.0 08:53:23 10° NE 08:57:23 29° E 09:01:21 10° SSE
NOSS 3-2 (C) 3.3 08:57:53 39° SSW 09:00:07 80° ESE 09:06:31 10° NE
STARLINK-1068 3.7 09:01:24 59° WNW 09:01:41 61° NW 09:05:47 10° NE
deb Chang Zheng 4 3.4 09:02:36 10° N 09:06:56 80° WNW 09:08:06 48° SSW
Cosmos 1515 3.5 09:07:32 66° W 09:07:32 66° W 09:11:20 10° N
SL-16 R/B 2.6 09:02:27 10° NNW 09:08:06 65° ENE 09:13:43 10° SE
Cosmos 2082 3.6 09:06:31 34° SSW 09:09:08 86° WNW 09:14:54 10° NNE
Cosmos 1263 4.4 09:09:47 61° SE 09:10:09 70° E 09:13:08 10° NNE
Cosmos 2221 Rocket 3.6 09:08:08 28° S 09:10:26 80° E 09:14:53 10° N
SeaSat 1 3.9 09:06:17 10° ESE 09:10:48 38° ENE 09:15:22 10° N
Meteor 1-19 Rocket 4.1 09:08:49 33° SSW 09:11:21 67° W 09:16:53 10° N
STARLINK-1060 4.0 09:10:58 45° WNW 09:11:40 51° NNW 09:15:43 10° NE
ADEOS II 3.5 09:08:25 10° NNW 09:12:13 21° WNW 09:12:15 21° WNW
STARLINK-1030 4.1 09:15:44 40° WNW 09:16:39 48° NNW 09:20:40 10° NE
STARLINK-1027 4.3 09:17:19 37° WNW 09:18:24 46° NNW 09:22:31 10° NE
BREEZE-M DEB (TANK) 2.7 09:13:43 10° WNW 09:18:42 63° SW 09:22:41 10° SE
STARLINK-1065 4.5 09:17:48 28° S 09:19:25 43° SE 09:23:21 10° ENE
Meteor 1-4 Rocket 3.8 09:16:11 10° SSE 09:19:45 43° E 09:23:21 10° NNE
CZ-2C R/B 3.5 09:16:37 10° N 09:20:20 36° WNW 09:20:30 36° WNW
Sich 1 Rocket 3.6 09:17:19 10° NNW 09:21:37 56° W 09:24:08 23° SSW
STARLINK-1020 4.2 09:20:31 35° WNW 09:21:38 44° NNW 09:25:37 10° NE
Cosmos 1048 Rocket 4.0 09:16:41 10° NNW 09:21:58 62° WSW 09:27:14 10° S
STARLINK-52 4.0 09:24:22 32° S 09:24:22 32° S 09:26:26 10° SSE
Okean 2 Rocket 3.0 09:20:19 10° N 09:24:50 89° W 09:29:21 10° S
Cosmos 2151 Rocket 4.0 09:21:16 10° N 09:25:39 62° E 09:29:59 10° SSE
STARLINK-1052 4.4 09:25:19 31° WNW 09:26:40 41° NNW 09:30:36 10° NE
Cosmos 1300 Rocket 3.6 09:23:18 10° N 09:27:38 79° E 09:31:56 10° S
STARLINK-1063 4.2 09:26:15 27° SSW 09:28:13 51° SE 09:32:15 10° ENE
Cosmos 1125 Rocket 3.7 09:26:13 29° SW 09:28:37 52° WNW 09:33:49 10° N
USA 267 4.1 09:23:57 10° NE 09:29:55 39° NNW 09:34:11 18° W
IDEFIX/ARIANE 42P 3.0 09:26:20 10° N 09:31:15 44° WNW 09:33:47 25° SW
COSMOS 2441 4.3 09:27:01 10° N 09:31:48 70° WNW 09:35:30 17° SSW
Geosat 3.9 09:27:39 10° NNE 09:32:41 74° WNW 09:36:08 21° SW
MSX 3.8 09:27:15 10° N 09:32:58 67° WNW 09:37:58 14° SSW
Cosmos 2237 Rocket 3.0 09:28:22 10° NW 09:33:09 29° WSW 09:37:21 13° SSW
STARLINK-1064 4.0 09:31:03 26° SSW 09:33:11 56° SE 09:37:16 10° ENE
Okean 3 3.5 09:31:55 27° SSW 09:34:00 55° W 09:38:06 10° N
Cosmos 389 Rocket 2.8 09:33:56 36° WSW 09:34:49 45° WNW 09:38:15 10° N
ATLAS 3B R/B 2.9 09:31:05 12° SSW 09:37:20 69° ESE 09:43:56 10° NE
STARLINK-1041 3.9 09:35:51 24° SSW 09:38:10 62° SE 09:42:16 10° ENE
Cosmos 1544 3.7 09:37:42 10° NNW 09:41:00 33° W 09:42:03 27° SW
PSLV R/B 3.7 09:37:59 10° N 09:42:15 54° WNW 09:45:30 17° SW
Cosmos 1378 Rocket 4.3 09:38:55 10° S 09:43:07 54° E 09:47:22 10° NNE
STARLINK-1038 3.8 09:40:37 23° SW 09:43:07 69° SE 09:47:15 10° NE
Cosmos 2263 Rocket 3.4 09:42:29 10° S 09:47:46 42° ESE 09:53:05 10° NE
STARLINK-1046 3.7 09:45:25 21° SW 09:48:06 76° SE 09:52:15 10° NE
Cosmos 1092 Rocket 4.1 09:43:20 10° S 09:49:41 83° E 09:56:01 10° N
ATLAS 5 CENTAUR R/B 3.5 09:44:13 10° NNW 09:49:47 47° NE 09:56:10 10° ESE
Meteor 2-4 Rocket 4.0 09:45:05 11° SSW 09:50:34 51° WNW 09:56:20 10° N
Cosmos 1689 Rocket 2.1 09:48:04 10° S 09:51:01 58° W 09:53:59 10° NNW
CZ-4B R/B 2.4 09:50:29 19° SW 09:52:12 28° W 09:55:15 10° NW
Cosmos 2297 Rocket 3.6 09:49:32 16° W 09:52:12 22° NW 09:56:37 10° N
STARLINK-1039 3.6 09:50:10 19° SW 09:53:02 83° SE 09:57:12 10° NE
ADEOS 3.6 09:50:14 10° N 09:55:25 64° WNW 10:00:33 10° SSW
CZ-4B R/B 4.2 09:51:49 10° NNE 09:56:00 47° E 10:00:18 10° S
ARIANE 5 R/B 4.5 09:54:27 10° NW 09:56:20 12° WNW 09:57:52 11° WNW
STARLINK-1045 3.6 09:54:57 18° SW 09:58:01 90° NNW 10:02:11 10° NE
STARLINK-1050 3.6 09:59:48 16° SW 10:03:03 81° NW 10:07:13 10° NE
USA 234 3.3 09:56:51 10° SE 10:03:18 62° SW 10:09:47 10° NW
Cosmos 2026 Rocket 4.1 09:58:12 10° S 10:04:18 78° E 10:10:23 10° N
Nadezhda 4 Rocket 4.3 10:00:30 10° SSW 10:06:31 46° WNW 10:12:37 10° N
STARLINK-1055 3.6 10:04:35 14° WSW 10:08:02 75° NW 10:12:12 10° NE
BREEZE M DEB (TANK) 4.0 10:10:46 10° WNW 10:12:53 28° N 10:16:55 10° NE
STARLINK-1022 3.7 10:09:23 13° WSW 10:13:02 68° NW 10:17:10 10° NE
Cosmos 2227 4.2 10:09:55 10° SSW 10:15:32 89° ESE 10:21:12 10° NNE
STARLINK-1042 3.8 10:14:09 11° WSW 10:18:01 63° NW 10:22:08 10° NE
Cosmos 1484 Rocket 2.8 10:14:13 10° NNE 10:18:03 82° ESE 10:21:48 10° S
Okean 1 Rocket 3.0 10:13:59 10° N 10:18:20 79° W 10:22:43 10° S
Cosmos 2227 Rocket 3.9 10:15:07 10° W 10:18:36 16° NW 10:22:07 10° N
Cosmos 1975 Rocket 4.1 10:18:45 10° SSE 10:22:56 50° E 10:27:11 10° NNE
STARLINK-1056 3.9 10:18:54 10° WSW 10:22:58 58° NW 10:27:04 10° NE
Aureole 3 Rocket 3.9 10:20:38 10° N 10:25:14 53° ENE 10:28:42 10° SSE
Gbstr 26 Del rocket 4.4 10:20:30 10° SSW 10:26:26 49° SE 10:31:13 10° ENE
Cosmos 1818 3.6 10:21:17 10° NW 10:26:37 58° WSW 10:31:55 10° SSE
STARLINK-1054 4.0 10:23:54 10° WSW 10:27:57 53° NNW 10:32:02 10° NE
Cosmos 1943 3.8 10:23:38 10° NNW 10:29:20 65° ENE 10:34:59 10° SSE
Cosmos 1805 3.9 10:27:11 10° N 10:31:03 63° E 10:34:54 10° SSE
COSMO-SKYMED 1 2.9 10:28:14 10° SSE 10:32:33 74° ENE 10:36:54 10° N
STARLINK-1062 4.1 10:28:55 10° WSW 10:32:57 49° NNW 10:36:59 10° NE
CENTAUR R/B 3.4 10:28:05 10° WSW 10:33:34 34° NW 10:39:55 10° NNE
H-2A R/B 2.4 10:29:36 10° N 10:33:40 69° WNW 10:37:35 10° SSW
CZ-2C R/B 3.3 10:31:43 10° N 10:35:32 27° WNW 10:39:20 10° SW
Cosmos 1867 3.7 10:32:02 10° SW 10:37:27 68° NW 10:42:54 10° NNE
